Location: Godiavel Galaoual
(15.2485°N, 12.6604°W)
Time: 12:06:01
(UTC+00:00)

LightSail 2 - Pass Details

Date: 12 June 2020
Orbit: 692 x 720 km, 24.0° (Epoch: 14 July)

Event Time Altitude Azimuth Distance (km) Brightness Sun altitude
Rises 20:59:02 0° 276° (W) 3,049 9.5 -21.5°
Reaches altitude 10° 21:01:37 10° 285° (WNW) 2,131 8.6 -22.1°
Maximum altitude 21:06:13 35° 351° (N) 1,100 6.4 -23.0°
Enters shadow 21:09:10 19° 46° (NE) 1,612 6.8 -23.6°
